Volver al catálogo

COSMOS 917 DEB

ActivoHEO
NORAD 27888·DEBRIS·🇷🇺 Russia

Lanzado Jun 16, 1977 desde Plesetsk Cosmodrome

Loading…

Próximos Pases (próximas 24 horas)

TLE

ActualizadoSource: Space-Track

Época: Sep 13, 2026, 07:51 UTC

1 27888U 77047L   26256.32713304 -.00000414  00000-0  76351-3 0  9997
2 27888  60.0637 211.3544 7459555  58.4213 353.3202  2.02135150219986

Sigue COSMOS 917 DEB en tiempo real con AllMySat

Download on the App Store